• In Czech Republic
  • List of Countries
  • For 7 days
  • Water Temperature
  • Satellite Maps
  • Weather Map
  • Weather Widgets
  • user-avatar
    Login

    Hourly Weather Exeter

    Today, 17 October, Tuesday

    Time Temperature Precipitation Wind Pressure Humidity
    00:00 +10°C° 0 mm 7 mps 756 mmHg 76%
    01:00 +10°C° 0 mm 7 mps 756 mmHg 76%
    02:00 +10°C° 0 mm 7 mps 756 mmHg 77%
    03:00 +9°C° 0 mm 6 mps 756 mmHg 78%
    04:00 +9°C° 0 mm 5 mps 756 mmHg 80%
    05:00 +9°C° 0 mm 5 mps 756 mmHg 82%
    06:00 +8°C° 0 mm 4 mps 756 mmHg 84%
    07:00 +10°C° 0 mm 4 mps 756 mmHg 81%
    08:00 +11°C° 0 mm 3 mps 757 mmHg 78%
    09:00 +12°C° 0 mm 3 mps 757 mmHg 75%
    10:00 +13°C° 0.4 mm 3 mps 757 mmHg 74%
    11:00 +14°C° 0.4 mm 2 mps 757 mmHg 74%
    12:00 +14°C° 0.4 mm 2 mps 757 mmHg 74%
    13:00 +14°C° 0.6 mm 2 mps 757 mmHg 78%
    14:00 +13°C° 0.6 mm 2 mps 756 mmHg 83%
    15:00 +12°C° 0.6 mm 2 mps 755 mmHg 87%
    16:00 +12°C° 0.5 mm 2 mps 755 mmHg 89%
    17:00 +12°C° 0.5 mm 2 mps 755 mmHg 91%
    18:00 +10°C° 0.5 mm 2 mps 754 mmHg 92%
    19:00 +10°C° 0.5 mm 3 mps 754 mmHg 92%
    20:00 +10°C° 0.5 mm 3 mps 754 mmHg 92%
    21:00 +10°C° 0.5 mm 4 mps 754 mmHg 92%
    22:00 +10°C° 0.2 mm 4 mps 753 mmHg 92%
    23:00 +10°C° 0.2 mm 4 mps 753 mmHg 92%

    Tomorrow, 18 October, Wednesday

    Time Temperature Precipitation Wind Pressure Humidity
    00:00 +9°C° 0.2 mm 5 mps 752 mmHg 92%
    01:00 +9°C° 0.1 mm 5 mps 752 mmHg 92%
    02:00 +9°C° 0.1 mm 5 mps 751 mmHg 93%
    03:00 +9°C° 0.1 mm 5 mps 751 mmHg 93%
    04:00 +11°C° 0 mm 4 mps 750 mmHg 94%
    05:00 +11°C° 0 mm 4 mps 750 mmHg 94%
    06:00 +11°C° 0 mm 4 mps 750 mmHg 95%
    07:00 +11°C° 0 mm 3 mps 750 mmHg 94%
    08:00 +12°C° 0 mm 3 mps 750 mmHg 94%
    09:00 +13°C° 0 mm 2 mps 750 mmHg 94%
    10:00 +13°C° 0 mm 3 mps 750 mmHg 92%
    11:00 +14°C° 0 mm 3 mps 750 mmHg 89%
    12:00 +16°C° 0 mm 3 mps 750 mmHg 87%
    13:00 +17°C° 0 mm 3 mps 750 mmHg 86%
    14:00 +17°C° 0 mm 3 mps 749 mmHg 86%
    15:00 +17°C° 0 mm 3 mps 749 mmHg 85%
    16:00 +16°C° 0 mm 3 mps 749 mmHg 88%
    17:00 +14°C° 0 mm 3 mps 749 mmHg 92%
    18:00 +14°C° 0 mm 2 mps 749 mmHg 96%
    19:00 +13°C° 0 mm 2 mps 749 mmHg 96%
    20:00 +13°C° 0 mm 2 mps 749 mmHg 96%
    21:00 +13°C° 0 mm 2 mps 749 mmHg 96%
    22:00 +13°C° 0 mm 2 mps 748 mmHg 96%
    23:00 +12°C° 0 mm 3 mps 748 mmHg 96%

    Day after tomorrow, 19 October, Thursday

    Time Temperature Precipitation Wind Pressure Humidity
    00:00 +12°C° 0 mm 3 mps 747 mmHg 96%
    01:00 +12°C° 0 mm 3 mps 747 mmHg 96%
    02:00 +12°C° 0 mm 3 mps 747 mmHg 96%
    03:00 +12°C° 0 mm 3 mps 746 mmHg 96%
    04:00 +12°C° 0 mm 3 mps 746 mmHg 96%
    05:00 +12°C° 0 mm 3 mps 745 mmHg 96%
    06:00 +12°C° 0 mm 4 mps 745 mmHg 96%
    07:00 +12°C° 0 mm 4 mps 745 mmHg 94%
    08:00 +13°C° 0 mm 5 mps 745 mmHg 93%
    09:00 +13°C° 0 mm 6 mps 745 mmHg 91%
    10:00 +14°C° 0.3 mm 6 mps 745 mmHg 90%
    11:00 +14°C° 0.3 mm 7 mps 745 mmHg 89%
    12:00 +14°C° 0.3 mm 7 mps 745 mmHg 89%
    13:00 +14°C° 1 mm 7 mps 744 mmHg 90%
    14:00 +13°C° 1 mm 8 mps 743 mmHg 92%
    15:00 +13°C° 1 mm 8 mps 743 mmHg 93%
    16:00 +13°C° 2.6 mm 8 mps 742 mmHg 94%
    17:00 +13°C° 2.6 mm 8 mps 742 mmHg 94%
    18:00 +13°C° 2.6 mm 8 mps 741 mmHg 95%
    19:00 +13°C° 1.8 mm 8 mps 741 mmHg 94%
    20:00 +13°C° 1.8 mm 8 mps 741 mmHg 94%
    21:00 +13°C° 1.8 mm 8 mps 741 mmHg 93%
    22:00 +12°C° 0.2 mm 8 mps 742 mmHg 93%
    23:00 +11°C° 0.2 mm 7 mps 742 mmHg 92%

    20 October, Friday

    Time Temperature Precipitation Wind Pressure Humidity
    00:00 +10°C° 0.2 mm 7 mps 743 mmHg 92%
    01:00 +10°C° 0 mm 6 mps 744 mmHg 91%
    02:00 +10°C° 0 mm 6 mps 745 mmHg 91%
    03:00 +9°C° 0 mm 5 mps 746 mmHg 90%
    04:00 +9°C° 0 mm 5 mps 746 mmHg 90%
    05:00 +8°C° 0 mm 4 mps 747 mmHg 91%
    06:00 +8°C° 0 mm 3 mps 748 mmHg 91%
    07:00 +9°C° 0 mm 2 mps 748 mmHg 88%
    08:00 +10°C° 0 mm 2 mps 748 mmHg 85%
    09:00 +11°C° 0 mm 1 mps 748 mmHg 83%
    10:00 +12°C° 0 mm 2 mps 748 mmHg 81%
    11:00 +12°C° 0 mm 4 mps 748 mmHg 79%
    12:00 +13°C° 0 mm 6 mps 748 mmHg 78%
    13:00 +11°C° 0.1 mm 6 mps 747 mmHg 80%
    14:00 +11°C° 0.1 mm 7 mps 746 mmHg 82%
    15:00 +11°C° 0.1 mm 8 mps 745 mmHg 84%
    16:00 +12°C° 0.7 mm 9 mps 744 mmHg 87%
    17:00 +13°C° 0.7 mm 10 mps 743 mmHg 90%
    18:00 +14°C° 0.7 mm 11 mps 742 mmHg 94%
    19:00 +13°C° 0.9 mm 10 mps 742 mmHg 92%
    20:00 +12°C° 0.9 mm 10 mps 742 mmHg 90%
    21:00 +12°C° 0.9 mm 9 mps 742 mmHg 89%
    22:00 +11°C° 0.1 mm 10 mps 742 mmHg 86%
    23:00 +11°C° 0.1 mm 11 mps 742 mmHg 83%

    21 October, Saturday

    Time Temperature Precipitation Wind Pressure Humidity
    00:00 +9°C° 0.1 mm 11 mps 743 mmHg 80%
    01:00 +9°C° 0.1 mm 12 mps 742 mmHg 78%
    02:00 +9°C° 0.1 mm 13 mps 742 mmHg 76%
    03:00 +9°C° 0.1 mm 14 mps 741 mmHg 73%
    04:00 +9°C° 0.2 mm 15 mps 741 mmHg 71%
    05:00 +10°C° 0.2 mm 16 mps 740 mmHg 69%
    06:00 +10°C° 0.2 mm 17 mps 740 mmHg 67%
    07:00 +10°C° 0.1 mm 17 mps 740 mmHg 67%
    08:00 +10°C° 0.1 mm 17 mps 739 mmHg 66%
    09:00 +11°C° 0.1 mm 18 mps 739 mmHg 66%
    10:00 +10°C° 0.7 mm 17 mps 740 mmHg 71%
    11:00 +10°C° 0.7 mm 16 mps 740 mmHg 76%
    12:00 +10°C° 0.7 mm 16 mps 740 mmHg 81%
    13:00 +10°C° 0.3 mm 15 mps 741 mmHg 80%
    14:00 +10°C° 0.3 mm 15 mps 741 mmHg 79%
    15:00 +10°C° 0.3 mm 14 mps 742 mmHg 78%
    16:00 +9°C° 0.1 mm 14 mps 743 mmHg 77%
    17:00 +9°C° 0.1 mm 13 mps 743 mmHg 76%
    18:00 +8°C° 0.1 mm 12 mps 744 mmHg 75%
    19:00 +8°C° 0.1 mm 12 mps 745 mmHg 74%
    20:00 +8°C° 0.1 mm 12 mps 746 mmHg 73%
    21:00 +8°C° 0.1 mm 12 mps 747 mmHg 72%
    22:00 +8°C° 0 mm 12 mps 747 mmHg 72%
    23:00 +8°C° 0 mm 11 mps 747 mmHg 71%

    22 October, Sunday

    Time Temperature Precipitation Wind Pressure Humidity
    00:00 +7°C° 0 mm 11 mps 748 mmHg 71%
    01:00 +7°C° 0.1 mm 11 mps 748 mmHg 72%
    02:00 +8°C° 0.1 mm 11 mps 749 mmHg 74%
    03:00 +8°C° 0.1 mm 11 mps 749 mmHg 75%
    04:00 +7°C° 0.1 mm 10 mps 750 mmHg 75%
    05:00 +7°C° 0.1 mm 10 mps 750 mmHg 76%
    06:00 +7°C° 0.1 mm 10 mps 751 mmHg 77%
    07:00 +8°C° 0 mm 9 mps 752 mmHg 76%
    08:00 +8°C° 0 mm 9 mps 752 mmHg 74%
    09:00 +8°C° 0 mm 9 mps 753 mmHg 73%
    10:00 +10°C° 0.1 mm 9 mps 754 mmHg 71%
    11:00 +9°C° 0.1 mm 10 mps 754 mmHg 68%
    12:00 +11°C° 0.1 mm 10 mps 754 mmHg 65%
    13:00 +11°C° 0 mm 9 mps 754 mmHg 67%
    14:00 +11°C° 0 mm 9 mps 754 mmHg 70%
    15:00 +10°C° 0 mm 8 mps 754 mmHg 72%
    16:00 +10°C° 0 mm 8 mps 754 mmHg 75%
    17:00 +10°C° 0 mm 8 mps 755 mmHg 77%
    18:00 +10°C° 0 mm 7 mps 755 mmHg 79%
    19:00 +11°C° 0 mm 8 mps 755 mmHg 81%
    20:00 +11°C° 0 mm 8 mps 754 mmHg 83%
    21:00 +11°C° 0 mm 8 mps 754 mmHg 84%
    22:00 +11°C° 0.5 mm 9 mps 754 mmHg 86%
    23:00 +12°C° 0.5 mm 10 mps 753 mmHg 88%
    Show more